Location: Seattle
(47.6064°N, 122.3308°W)
Time: 01:46:12
(UTC-08:00)

A-11 Canister half - Pass Details

Date: 05 December 2020
Orbit: 1524 x 1684 km, 47.3° (Epoch: 21 January)

Event Time Altitude Azimuth Distance (km) Brightness Sun altitude
Rises 10:46:10 0° 291° (WNW) 4,912 11.3 17.9°
Reaches altitude 10° 10:49:38 10° 284° (WNW) 3,905 10.9 18.1°
Maximum altitude 10:58:27 38° 222° (SW) 2,303 10.6 18.5°
Drops below altitude 10° 11:07:01 10° 159° (SSE) 3,779 13.3 18.9°
Sets 11:10:20 0° 151° (SSE) 4,739 13.0 19.0°
